Simultaneous Nadir Overpasses (SNOs) Predictions

Prediction of SNOs between GOES-14 and AQUA Satellite Orbit:

Table of predicted SNOs for the next 14.0 days since TLE Epoch: 4/8/2023
Index Date Time (GOES-14) GOES-14 Lat,Lon AQUA Lat,Lon Distance(km) Time Diff (sec)
1 04/08/2023 08:52:05 0.17,-108.10 -0.12,-106.68 161.28 80
2 04/08/2023 21:13:05 -0.16,-108.11 -0.97,-111.77 416.16 80
3 04/10/2023 20:59:19 -0.17,-108.13 -0.26,-108.41 33.03 80
4 04/12/2023 20:48:13 -0.17,-108.13 0.50,-105.06 350.28 80
5 04/13/2023 09:09:03 0.17,-108.14 0.62,-110.10 223.78 80
6 04/15/2023 08:52:36 0.18,-108.14 -0.13,-106.74 159.48 80
7 04/15/2023 21:13:35 -0.17,-108.14 -0.97,-111.82 419.49 80
8 04/17/2023 20:59:47 -0.18,-108.15 -0.23,-108.46 35.02 80
9 04/19/2023 20:48:38 -0.18,-108.16 0.49,-105.09 349.87 80
10 04/20/2023 09:09:27 0.17,-108.18 0.60,-110.13 222.14 80
